Wind_Speed
52 55 57 61 65 70 70 67 63 60 57 55 54 54 53 50 47 43 40 36 33 30 27 25 22 20 18 17 15 14 12 11 10 10 9 9 8 7 7 7 6 6 6 6 6 6 6 5 5
51 54 58 62 67 71 70 66 63 60 58 57 56 55 54 51 48 44 41 38 35 32 29 27 25 22 20 18 17 15 14 13 12 11 10 10 9 8 8 7 7 7 7 7 7 7 7 6 6
51 55 59 63 69 71 67 63 60 58 59 59 58 56 55 51 48 45 42 40 37 34 31 29 27 24 22 21 19 17 15 14 13 13 11 11 10 9 8 8 8 8 8 8 8 8 8 7 7
51 55 59 64 68 67 64 59 59 58 60 61 59 57 56 52 49 46 44 42 39 36 34 31 29 26 25 23 21 19 17 16 15 14 13 12 11 10 9 9 9 9 9 9 9 9 9 8 8
51 56 60 65 66 64 61 59 60 60 60 61 60 58 56 52 51 48 46 43 40 38 36 33 31 28 26 25 23 21 19 18 16 16 14 14 13 12 11 10 10 10 10 10 10 10 9 9 8
52 56 61 63 62 60 58 58 61 61 59 59 60 58 56 52 50 49 47 45 43 40 38 35 33 30 28 27 25 23 21 19 18 17 16 15 14 13 13 12 11 11 11 11 11 11 10 10 9
53 56 59 59 58 58 56 57 61 62 60 59 58 58 56 53 51 49 48 47 45 43 40 37 35 32 30 28 26 25 23 21 20 18 17 16 16 15 14 13 13 12 12 12 12 12 11 11 10
52 55 58 57 57 56 55 56 59 61 60 59 58 57 56 55 51 49 48 47 46 44 42 39 37 34 32 30 28 26 24 23 21 20 19 18 17 17 16 15 14 14 14 13 13 13 12 12 12
50 54 56 54 55 52 55 56 57 59 60 59 58 57 55 53 52 49 47 48 47 46 44 42 39 36 33 31 28 27 25 23 22 21 20 18 18 18 17 16 16 15 15 14 14 14 14 13 13
50 52 51 49 51 52 54 56 56 58 59 59 58 57 55 52 53 50 47 48 47 46 45 43 40 37 34 32 29 27 25 24 22 21 20 19 19 18 18 17 17 17 16 16 15 15 15 15 14
47 48 48 49 50 51 53 56 57 57 58 57 58 57 55 53 51 49 46 47 47 48 47 44 42 39 36 33 30 28 26 25 23 22 21 20 20 20 19 19 18 18 18 17 17 17 16 16 16
46 46 46 48 50 50 52 55 58 57 56 56 56 56 55 53 51 48 45 45 47 48 47 45 43 41 38 35 32 29 27 25 24 22 21 21 21 21 20 20 19 19 19 19 18 18 18 18 18
42 45 45 47 50 50 51 55 56 57 56 56 56 56 54 51 49 48 46 45 45 45 45 45 44 42 39 37 34 31 28 26 24 23 22 21 21 21 21 21 21 21 21 21 21 20 20 20 20
36 43 44 46 47 48 49 52 55 56 57 56 56 55 55 51 48 48 45 45 42 43 44 45 43 42 40 38 35 32 29 27 25 23 23 22 22 22 22 22 22 22 22 23 23 23 23 23 23
33 39 42 44 46 46 45 49 54 54 56 56 55 55 54 52 48 47 43 42 41 40 39 41 42 41 39 37 35 33 30 28 27 25 24 23 23 23 23 24 24 24 24 25 25 25 26 26 26
32 36 40 43 45 45 44 46 51 53 55 56 56 55 52 51 48 46 44 42 41 39 37 39 39 39 39 37 36 35 33 30 29 27 26 25 24 24 24 24 25 25 25 25 26 27 28 28 29
29 34 38 40 43 44 44 44 48 51 54 55 55 55 53 51 48 45 44 42 40 39 38 38 38 37 37 37 36 36 34 32 30 28 27 27 26 25 25 26 26 25 26 27 28 29 30 30 31
25 29 35 37 39 41 43 43 47 50 53 54 54 54 53 50 48 45 42 40 39 38 40 39 38 37 37 36 36 35 34 33 31 30 29 28 28 27 27 27 27 27 28 28 29 31 32 33 34
22 25 32 34 34 37 41 43 43 49 52 54 54 53 52 49 47 45 42 40 37 36 38 39 37 35 35 36 35 35 34 34 33 31 30 28 28 29 29 30 30 30 30 31 32 33 34 35 36
20 23 28 31 31 35 38 40 40 45 50 53 52 50 50 49 47 45 43 41 37 36 35 34 35 35 35 35 35 33 33 34 34 33 32 31 31 31 31 32 33 33 33 33 34 35 36 37 38
19 21 24 26 28 31 34 38 38 42 46 50 50 49 47 46 46 46 43 40 39 37 36 34 34 35 35 35 34 34 34 34 34 35 34 34 35 34 34 34 34 34 34 34 36 36 38 38 39
15 18 21 23 24 27 30 33 35 38 43 45 47 48 47 47 45 44 42 41 40 39 37 35 35 36 36 36 35 35 35 34 34 34 35 35 35 35 34 34 35 35 35 36 37 38 39 40 41
13 15 17 20 22 23 27 27 31 33 37 41 43 45 44 44 44 43 41 41 41 41 39 38 37 36 36 36 36 35 35 35 35 35 36 36 36 36 36 36 37 37 38 39 40 40 40 41 42
10 12 14 16 17 19 21 23 26 31 33 37 40 43 42 43 43 43 42 41 41 40 40 39 39 39 38 37 36 37 37 36 37 37 36 37 37 37 37 38 39 40 41 41 41 42 42 43 44
9 10 11 13 14 15 17 19 21 24 29 32 34 38 41 40 40 40 40 40 40 40 40 39 39 39 39 39 39 40 39 39 38 38 38 38 39 40 40 40 41 42 42 43 44 45 45 46 46
9 9 9 9 11 12 14 15 18 19 22 26 29 33 36 37 37 37 37 38 38 38 39 39 40 40 40 41 41 41 40 40 40 40 40 41 42 42 43 44 44 45 45 47 48 48 48 48 49
9 8 7 7 8 9 11 12 14 15 18 21 25 28 31 34 35 34 34 36 38 38 38 39 39 40 41 41 42 42 42 42 41 42 42 43 44 45 46 47 47 47 48 49 49 49 49 49 49
8 8 7 7 7 8 10 11 12 13 15 18 21 25 28 29 32 35 35 34 35 36 37 38 39 40 40 41 42 42 42 42 43 43 43 44 45 46 46 47 48 48 49 50 50 51 51 51 50
7 7 6 6 6 7 8 10 11 12 15 17 19 21 25 27 30 32 33 34 34 35 36 37 38 39 40 41 41 42 43 44 44 45 45 46 47 47 48 48 49 49 49 50 50 51 51 51 52
7 7 6 6 6 6 7 8 10 11 13 15 18 20 22 25 27 29 32 33 34 35 37 38 39 40 41 41 42 43 44 45 46 46 47 47 48 49 49 50 50 50 51 51 52 52 52 51 51
Wind_Direction
251 245 239 234 232 231 230 229 226 222 221 218 218 219 222 223 224 224 224 224 225 226 226 225 224 223 223 225 225 225 225 226 227 228 231 235 239 245 254 261 268 274 280 286 291 292 295 299 300
249 243 237 234 232 232 230 227 224 221 220 218 216 216 219 221 223 223 223 222 223 224 224 224 224 223 223 224 225 224 224 226 228 228 230 234 238 244 251 259 265 271 277 283 288 289 290 292 292
247 240 236 234 232 232 230 226 224 221 219 218 215 215 217 219 220 221 221 221 221 222 223 223 223 223 223 223 224 224 224 226 228 229 230 233 238 243 249 256 263 269 274 279 284 286 288 289 287
244 238 235 234 233 232 229 225 222 220 218 217 217 214 214 216 218 219 220 220 220 221 221 222 222 222 223 224 224 224 224 226 228 229 230 233 238 243 247 253 261 268 272 276 281 284 286 286 284
241 236 234 234 233 230 227 223 221 219 217 216 216 214 213 213 215 216 217 218 218 219 220 221 221 221 222 223 224 224 224 225 227 230 231 234 238 244 248 253 259 265 270 274 280 283 283 282 281
238 235 233 233 232 229 225 222 220 218 216 214 215 215 212 211 211 212 214 215 216 217 218 219 220 221 221 223 224 224 223 224 226 230 233 235 239 245 248 252 257 262 266 271 276 279 279 279 279
237 234 234 233 230 227 223 221 220 218 216 214 214 215 212 210 210 210 211 212 214 215 216 217 218 219 220 221 222 222 223 224 226 230 234 237 240 244 248 251 255 259 262 266 271 274 276 276 276
236 234 233 230 228 224 220 220 219 218 216 214 215 214 213 211 210 210 211 211 211 213 215 215 216 217 219 220 221 222 222 224 226 230 234 237 241 244 247 251 254 257 259 262 266 270 272 273 274
233 232 231 228 226 222 218 218 216 217 216 214 215 213 212 210 211 211 212 211 209 211 212 214 214 215 217 218 219 220 221 223 226 230 233 237 241 244 247 250 252 255 258 259 262 266 269 271 272
231 231 229 225 223 219 216 216 214 215 215 214 214 215 213 211 211 212 213 211 210 210 211 211 211 213 215 215 217 219 220 222 225 229 233 236 240 243 247 249 251 254 256 258 260 263 266 268 270
230 230 226 221 219 217 214 214 213 213 214 213 213 214 213 213 211 213 214 211 210 210 209 208 210 211 212 213 215 216 218 222 226 230 234 237 240 242 246 248 250 253 255 257 259 262 265 268 271
230 226 222 218 216 216 214 212 212 211 212 212 214 214 214 214 213 213 214 213 211 210 208 207 209 209 210 210 212 215 218 221 225 230 234 237 241 244 246 248 250 252 255 257 259 262 265 267 270
228 222 218 215 214 214 213 212 211 211 209 210 212 214 214 214 217 215 214 214 213 211 209 208 208 209 209 210 212 213 216 220 224 229 233 237 241 244 247 249 251 253 256 259 261 264 266 268 271
226 220 216 212 211 212 212 211 210 210 209 209 211 212 214 214 216 217 217 216 215 212 210 210 209 209 209 209 210 213 215 218 222 227 232 237 240 244 247 250 252 254 257 260 262 264 267 269 272
220 215 213 210 209 210 209 210 208 208 208 208 210 211 213 214 217 218 218 218 216 212 209 209 209 210 208 208 210 213 214 218 223 227 232 236 240 244 248 250 253 255 258 260 263 266 268 270 272
213 212 210 208 208 209 210 208 206 206 207 208 209 211 213 214 217 218 219 219 219 218 216 213 212 212 211 212 214 216 218 221 223 227 232 236 240 244 248 252 255 257 259 262 264 267 269 271 272
211 211 208 205 207 209 210 207 206 206 207 207 208 211 212 214 216 218 220 222 223 222 220 220 217 215 214 215 217 219 221 223 225 229 233 238 241 245 250 254 257 260 262 264 266 268 270 271 273
211 212 207 204 205 208 208 206 205 206 206 207 208 211 213 215 217 218 219 222 223 222 222 221 220 219 218 219 221 223 225 226 228 231 234 238 243 248 252 256 259 262 264 266 268 270 271 272 273
209 208 204 203 205 208 206 206 205 206 207 207 208 211 214 216 218 220 220 220 219 220 222 222 223 222 223 224 225 227 228 231 232 236 237 241 247 251 254 257 260 263 265 267 269 271 272 273 274
202 202 202 203 206 207 207 208 206 205 207 208 209 210 214 217 218 223 224 224 223 223 223 224 226 228 229 229 229 230 232 235 236 239 242 245 250 254 256 259 261 264 266 268 271 272 274 275 276
195 197 201 201 206 208 208 208 207 206 208 209 211 211 214 216 219 223 226 229 229 229 230 228 230 232 231 231 233 236 237 239 240 243 246 250 253 256 257 260 262 264 266 269 272 274 276 277 278
184 193 199 201 207 209 209 211 209 209 209 210 213 214 215 218 221 225 228 230 231 233 234 236 236 237 237 239 240 240 240 241 244 247 249 252 255 256 258 261 263 264 268 272 274 276 277 277 278
181 190 197 206 210 212 212 211 209 209 210 211 214 214 215 218 221 225 227 231 234 237 239 239 240 241 241 241 241 242 244 246 249 250 252 254 257 260 263 264 266 268 271 274 275 276 277 277 277
177 186 194 203 209 213 213 214 210 211 211 212 213 215 217 220 222 225 229 233 234 237 239 241 242 245 245 246 246 247 250 252 254 256 258 259 261 263 266 268 269 270 272 274 275 276 277 277 279
170 182 195 204 210 216 215 216 212 210 213 214 214 214 217 219 222 225 227 231 233 236 239 242 244 246 249 250 249 251 254 255 257 259 261 261 262 264 266 268 270 271 273 275 277 278 279 279 279
159 173 188 199 205 212 216 214 213 215 217 218 217 216 217 218 220 224 228 230 233 236 240 243 245 247 249 250 252 254 256 256 258 260 262 264 264 266 266 269 271 271 273 275 277 279 279 280 281
160 170 179 182 187 195 204 208 211 215 220 224 222 221 222 222 224 227 231 233 235 237 240 243 245 247 249 250 252 254 256 257 259 261 262 264 265 266 268 270 272 273 274 275 276 277 279 281 282
161 168 165 177 184 187 196 202 207 211 217 223 227 227 227 229 231 232 234 237 238 238 241 244 247 248 250 252 254 255 256 258 259 261 262 264 266 268 269 272 273 274 275 277 277 278 280 282 282
163 163 167 179 188 193 201 211 216 217 218 222 227 230 232 235 236 237 238 239 241 243 244 246 249 251 253 254 255 257 258 260 261 263 264 265 266 268 269 271 273 274 275 277 278 280 281 281 282
175 179 182 185 191 205 214 217 223 224 225 228 229 232 236 238 241 242 243 243 245 246 247 249 251 253 255 256 257 259 260 261 263 264 265 265 267 268 270 271 273 275 276 278 280 281 281 282 283
Height
5734 5737 5740 5744 5746 5746 5753 5766 5778 5789 5796 5802 5807 5811 5817 5824 5831 5838 5842 5845 5848 5852 5855 5857 5859 5862 5864 5866 5867 5869 5870 5871 5872 5873 5874 5875 5876 5876 5877 5878 5878 5879 5879 5879 5879 5879 5879 5879 5879
5723 5726 5728 5730 5731 5733 5743 5758 5769 5781 5789 5794 5799 5804 5810 5816 5823 5830 5835 5839 5843 5847 5851 5854 5856 5858 5861 5863 5865 5866 5868 5869 5870 5871 5872 5873 5874 5875 5876 5876 5877 5878 5878 5878 5878 5878 5879 5879 5879
5711 5713 5716 5716 5717 5723 5738 5753 5765 5773 5779 5784 5790 5796 5803 5810 5817 5824 5829 5834 5838 5843 5846 5849 5852 5855 5857 5860 5862 5863 5865 5867 5868 5869 5870 5871 5872 5873 5874 5875 5876 5876 5877 5877 5877 5878 5878 5878 5878
5699 5701 5702 5704 5706 5718 5733 5747 5756 5762 5768 5774 5781 5788 5796 5805 5811 5818 5823 5828 5833 5837 5841 5845 5848 5851 5854 5856 5858 5860 5862 5864 5865 5867 5868 5869 5870 5871 5872 5873 5874 5875 5875 5876 5876 5876 5876 5877 5877
5685 5687 5689 5691 5699 5712 5726 5737 5745 5751 5758 5766 5773 5781 5789 5797 5804 5810 5816 5822 5827 5832 5836 5840 5844 5847 5850 5852 5855 5857 5859 5861 5863 5864 5865 5867 5868 5869 5870 5871 5872 5873 5874 5874 5874 5875 5875 5875 5875
5672 5674 5676 5681 5692 5706 5718 5728 5734 5741 5750 5758 5765 5773 5782 5789 5797 5803 5809 5815 5821 5826 5831 5835 5839 5842 5845 5848 5851 5853 5856 5858 5859 5861 5863 5864 5866 5867 5868 5869 5870 5871 5872 5872 5873 5873 5873 5873 5873
5661 5663 5666 5675 5686 5697 5710 5719 5724 5733 5742 5750 5758 5766 5773 5782 5790 5796 5802 5808 5813 5819 5824 5829 5834 5837 5841 5844 5847 5850 5852 5854 5856 5858 5860 5861 5863 5864 5865 5867 5868 5869 5869 5870 5870 5871 5871 5871 5872
5649 5653 5657 5665 5676 5689 5703 5709 5716 5725 5735 5743 5750 5758 5767 5776 5783 5788 5794 5800 5806 5812 5818 5823 5828 5832 5836 5840 5843 5845 5848 5850 5853 5855 5857 5858 5860 5861 5863 5864 5865 5866 5867 5867 5868 5868 5869 5869 5869
5637 5641 5646 5658 5669 5683 5693 5699 5708 5716 5725 5733 5742 5752 5761 5767 5774 5780 5787 5793 5799 5805 5811 5817 5822 5827 5831 5835 5838 5841 5844 5846 5849 5851 5853 5855 5857 5858 5860 5861 5862 5863 5864 5865 5865 5866 5866 5866 5867
5626 5630 5641 5653 5663 5674 5682 5689 5699 5707 5716 5726 5735 5744 5751 5759 5767 5775 5781 5787 5793 5799 5805 5811 5816 5821 5826 5830 5834 5837 5840 5842 5845 5847 5849 5851 5853 5855 5856 5857 5859 5860 5861 5862 5862 5863 5863 5863 5864
5617 5625 5635 5644 5653 5662 5671 5680 5689 5698 5709 5719 5729 5737 5745 5753 5761 5769 5775 5781 5787 5793 5798 5804 5810 5815 5820 5825 5829 5832 5835 5838 5841 5843 5845 5847 5849 5851 5852 5854 5855 5856 5857 5858 5859 5859 5860 5860 5860
5609 5618 5626 5636 5644 5653 5662 5672 5682 5691 5704 5715 5723 5730 5738 5747 5754 5762 5769 5775 5780 5786 5792 5798 5804 5809 5814 5819 5823 5827 5830 5833 5836 5839 5841 5843 5845 5847 5848 5850 5851 5852 5853 5854 5855 5856 5856 5857 5857
5601 5610 5618 5628 5637 5646 5655 5665 5675 5686 5697 5707 5715 5724 5732 5741 5748 5755 5763 5770 5775 5781 5786 5792 5797 5803 5808 5813 5817 5822 5825 5828 5831 5834 5836 5838 5840 5842 5844 5845 5847 5848 5849 5850 5851 5851 5852 5852 5852
5595 5603 5611 5621 5630 5639 5649 5659 5668 5680 5691 5701 5709 5718 5727 5735 5742 5750 5757 5764 5771 5776 5782 5787 5792 5797 5802 5807 5812 5816 5820 5823 5826 5829 5832 5834 5836 5838 5839 5841 5842 5843 5844 5845 5846 5847 5847 5847 5847
5590 5597 5605 5615 5624 5633 5643 5652 5662 5674 5684 5694 5703 5712 5721 5730 5737 5744 5752 5759 5766 5772 5777 5783 5788 5792 5797 5801 5806 5810 5814 5817 5821 5824 5826 5829 5831 5833 5834 5836 5837 5838 5839 5840 5841 5841 5842 5842 5842
5587 5593 5601 5612 5619 5628 5637 5646 5658 5668 5677 5688 5697 5706 5715 5724 5730 5738 5746 5753 5760 5767 5773 5778 5783 5788 5792 5796 5800 5805 5808 5812 5815 5818 5821 5823 5825 5827 5829 5830 5831 5833 5833 5834 5835 5835 5836 5836 5836
5585 5591 5599 5609 5616 5624 5632 5642 5653 5662 5672 5682 5692 5701 5709 5718 5725 5732 5740 5747 5754 5761 5767 5773 5778 5783 5787 5791 5795 5799 5802 5806 5809 5812 5815 5817 5819 5821 5823 5824 5825 5827 5827 5828 5829 5829 5829 5830 5830
5586 5592 5598 5606 5614 5621 5629 5638 5648 5657 5667 5677 5686 5695 5703 5711 5719 5727 5735 5742 5749 5756 5762 5767 5772 5777 5781 5785 5789 5793 5796 5800 5803 5806 5808 5811 5813 5815 5816 5818 5819 5820 5821 5821 5822 5822 5822 5822 5822
5586 5591 5598 5605 5612 5618 5626 5635 5643 5653 5662 5672 5681 5689 5698 5706 5714 5722 5729 5736 5742 5749 5755 5761 5766 5771 5775 5779 5783 5787 5790 5794 5797 5800 5802 5804 5806 5808 5809 5811 5812 5813 5814 5814 5814 5815 5815 5815 5815
5587 5592 5598 5604 5610 5617 5625 5633 5640 5649 5658 5667 5676 5685 5693 5702 5709 5717 5724 5730 5736 5742 5748 5754 5759 5764 5768 5772 5777 5781 5784 5787 5790 5793 5795 5797 5799 5800 5802 5803 5804 5805 5805 5806 5807 5807 5807 5807 5806
5590 5595 5600 5606 5611 5617 5624 5632 5639 5647 5655 5664 5672 5681 5689 5697 5705 5712 5718 5724 5730 5736 5741 5746 5752 5756 5760 5765 5769 5773 5777 5780 5783 5785 5787 5789 5791 5792 5794 5795 5796 5797 5797 5798 5798 5798 5798 5798 5798
5594 5598 5602 5607 5612 5618 5625 5631 5639 5645 5653 5662 5670 5678 5686 5694 5701 5708 5714 5720 5725 5730 5735 5740 5745 5749 5753 5757 5761 5765 5768 5771 5774 5777 5779 5781 5782 5784 5786 5787 5788 5789 5789 5790 5790 5790 5790 5789 5789
5597 5600 5605 5609 5614 5620 5625 5632 5639 5644 5652 5660 5668 5675 5683 5690 5697 5703 5709 5715 5720 5725 5729 5734 5738 5742 5746 5749 5753 5757 5760 5763 5765 5768 5770 5772 5774 5775 5777 5778 5779 5780 5781 5781 5781 5781 5780 5780 5779
5599 5603 5607 5611 5616 5622 5627 5633 5639 5644 5652 5659 5666 5673 5679 5686 5692 5698 5704 5710 5714 5719 5724 5728 5732 5736 5739 5743 5746 5749 5752 5754 5757 5760 5762 5764 5765 5767 5768 5769 5770 5771 5772 5772 5771 5771 5771 5770 5769
5603 5607 5611 5614 5618 5623 5627 5633 5640 5644 5650 5656 5663 5669 5676 5682 5688 5694 5699 5704 5709 5713 5717 5721 5725 5728 5732 5735 5739 5741 5744 5746 5749 5751 5753 5755 5757 5758 5759 5760 5761 5761 5762 5762 5762 5761 5761 5760 5759
5606 5611 5615 5618 5621 5625 5629 5634 5640 5644 5649 5655 5661 5667 5672 5678 5684 5689 5694 5698 5702 5707 5710 5714 5717 5721 5724 5727 5730 5733 5735 5738 5740 5742 5744 5746 5747 5749 5750 5750 5751 5752 5752 5752 5752 5751 5751 5750 5749
5609 5612 5616 5620 5623 5627 5631 5636 5640 5644 5649 5654 5659 5664 5670 5675 5680 5684 5688 5692 5696 5700 5704 5707 5710 5713 5716 5719 5722 5724 5727 5729 5731 5733 5735 5737 5738 5739 5740 5740 5741 5741 5741 5741 5740 5740 5740 5739 5737
5612 5615 5618 5621 5624 5628 5632 5636 5641 5644 5648 5653 5657 5662 5667 5671 5676 5680 5684 5687 5690 5694 5697 5700 5703 5706 5708 5711 5713 5716 5718 5720 5722 5723 5725 5726 5727 5728 5729 5730 5730 5730 5730 5730 5729 5729 5728 5727 5726
5615 5617 5619 5622 5625 5629 5632 5639 5640 5643 5647 5651 5656 5660 5664 5668 5671 5675 5678 5681 5685 5687 5690 5693 5695 5698 5700 5702 5704 5706 5708 5710 5712 5713 5715 5716 5717 5718 5718 5718 5719 5719 5718 5718 5718 5717 5716 5715 5714
5616 5618 5621 5624 5627 5629 5633 5640 5639 5642 5646 5649 5653 5656 5660 5663 5667 5670 5673 5676 5678 5681 5683 5685 5687 5689 5691 5693 5695 5697 5699 5700 5701 5703 5704 5705 5705 5706 5706 5707 5707 5707 5707 5706 5706 5705 5704 5703 5701